Regional Weather Roundup
Issued by NWS

Home | Current Version | Previous Version | Graphics & Text | Print | Product List | Glossary On
Versions: 1 2 3 4 5 6 7 8 9 10 11 12 13 14 15 16 17 18 19 20 21 22 23 24 25 26 27 28 29 30 31 32 33 34 35 36 37 38 39 40 41 42 43 44 45 46 47 48 49 50
000
ASUS45 KPSR 311610
RWRAZ

ARIZONA REGIONAL HOURLY WEATHER ROUNDUP
NATIONAL WEATHER SERVICE PHOENIX AZ
900 AM MST THU JUL 31 2014

NOTE: FAIR INDICATES FEW OR NO CLOUDS BELOW 12,000 FEET WITH NO
SIGNIFICANT WEATHER AND/OR OBSTRUCTIONS TO VISIBILITY.

AZZ001>003-036-311700-
NORTHWEST ARIZONA

CITY           SKY/WX    TMP DP  RH WIND       PRES   REMARKS
BULLHEAD CITY  SUNNY    100  50  18 N14       29.84F
KINGMAN        MOSUNNY   88  48  25 NE6       30.07S
$$

AZZ004>008-015-016-018-311700-
NORTH CENTRAL ARIZONA

CITY           SKY/WX    TMP DP  RH WIND       PRES   REMARKS
GRAND CANYON   SUNNY     78  47  33 VRB3      30.31F
WILLIAMS       MOSUNNY   75  50  41 CALM      30.38S
PRESCOTT       MOSUNNY   82  46  28 CALM      30.20R
FLAGSTAFF      PTSUNNY   75  48  38 SW7       30.34F
PAYSON         MOSUNNY   82  50  32 VRB6      30.24S
PAGE           SUNNY     85  49  28 N7        30.13F
$$

AZZ009>014-017-311700-
NORTHEAST ARIZONA

CITY           SKY/WX    TMP DP  RH WIND       PRES   REMARKS
WINSLOW        SUNNY     86  49  27 NW8       30.17F
SAINT JOHNS    MOSUNNY   81  49  32 SW9       30.23S
WINDOW ROCK    SUNNY     74  55  51 S6        30.32S
SHOW LOW       PTSUNNY   72  48  43 S22G30    30.34R
$$

AZZ023-311700-
GREATER PHOENIX AREA

CITY           SKY/WX    TMP DP  RH WIND       PRES   REMARKS
PHOENIX        CLOUDY    94  58  29 VRB3      29.91R
BUCKEYE          N/A     93  55  27 S6        29.92R
GLENDALE       PTSUNNY   95  57  28 E3        29.93R
LUKE AFB       NOT AVBL
DEER VALLEY    CLOUDY    92  56  29 SE8       29.94R
SCOTTSDALE     CLOUDY    92  57  30 SE6       29.96R
MESA-FALCON    PTSUNNY   95  57  28 SE12      29.94R
MESA-GATEWAY   PTSUNNY   95  57  28 S10       29.96R
CHANDLER       CLOUDY    95  57  28 SW16      29.93R
$$

AZZ027-028-311700-
SOUTHWEST MARICOPA COUNTY AND PINAL COUNTY

CITY           SKY/WX    TMP DP  RH WIND       PRES   REMARKS
CASA GRANDE    CLOUDY    95  57  28 S12G17    29.96S
GILA BEND      PTSUNNY   97  52  21 S13G20    29.90S
$$

AZZ503-504-507>509-311700-
SOUTHEAST ARIZONA

CITY           SKY/WX    TMP DP  RH WIND       PRES   REMARKS
TUCSON         CLOUDY    88  56  33 S12       30.09R
DAVIS-MONTHAN  CLOUDY    88  56  33 SE10      30.07S
RYAN FIELD       N/A     84  63  48 E10       30.07R
NOGALES        CLOUDY    74  63  68 CALM      30.17S
SIERRA VISTA   PTSUNNY   79  55  44 CALM      30.24R
SAFFORD        CLOUDY    80  61  52 E5        30.13R
$$

AZZ020-021-025-026-031-311700-
SOUTHWEST ARIZONA

CITY           SKY/WX    TMP DP  RH WIND       PRES   REMARKS
YUMA           CLOUDY    94  68  42 SE20      29.85R
$$

CAZ031-033-041-043-047-048-061-311700-
SOUTHERN CALIFORNIA

CITY           SKY/WX    TMP DP  RH WIND       PRES   REMARKS
DOWNTOWN L.A.  SUNNY     77  63  61 CALM      29.93R
L.A. AIRPORT   MOSUNNY   73  63  70 SE5       29.94S
SAN DIEGO      MOSUNNY   75  65  70 CALM      29.95S
BURBANK        SUNNY     76  59  55 SE6       29.94S
ONTARIO        MOSUNNY   79  58  48 CALM      29.95S
RIVERSIDE      SUNNY     78  58  49 VRB3      29.95S
PALM SPRINGS   SUNNY    101  50  18 NW13      29.83S
EL CENTRO NAS  PTSUNNY   95  69  42 SE8       29.81R HX 100
IMPERIAL         N/A    N/A N/A N/A MISG      29.80R
BLYTHE           N/A    N/A N/A N/A MISG      29.83R
NEEDLES        SUNNY    102  49  16 N10       29.85S
$$

NVZ020-UTZ003-311700-
SOUTHERN NEVADA-UTAH

CITY           SKY/WX    TMP DP  RH WIND       PRES   REMARKS
LAS VEGAS      MOSUNNY   92  49  22 S8        29.93S
SALT LAKE CITY MOSUNNY   76  54  46 VRB6      30.19S
$$

NMZ009-TXZ055-311700-
NEW MEXICO-WEST TEXAS

CITY           SKY/WX    TMP DP  RH WIND       PRES   REMARKS
ALBUQUERQUE    PTSUNNY   71  58  63 SE9       30.28F
EL PASO        CLOUDY    75  62  64 S3        30.22S
$$


........................KEY........................
SKY/WX - SKY CONDITION/WEATHER
TMP    - TEMPERATURE IN FAHRENHEIT
DP     - DEW POINT IN FAHRENHEIT
RH     - RELATIVE HUMIDITY IN PERCENT
WIND   - DIRECTION AND SPEED IN MILES PER HOUR (MPH)
VRB    - VARIABLE WIND DIRECTION
PRES   - MEAN SEA LEVEL PRESSURE IN INCHES OF MERCURY
         F - FALLING PRESSURE   R - RISING PRESSURE
         S - STEADY PRESSURE
VSB    - VISIBILITY IN MILES
HX     - HEAT INDEX IN FAHRENHEIT
WCI    - WIND CHILL INDEX IN FAHRENHEIT
TC     - TEMPERATURE IN CELSIUS WHICH IS ALSO KNOWN AS
         TEMPERATURE IN CENTIGRADE
AFB    - AIR FORCE BASE
         LUKE AFB IS LUKE AIR FORCE BASE
         DAVIS-MONTHAN IS DAVIS-MONTHAN AIR FORCE BASE
NAS    - NAVAL AIR STATION
         EL CENTRO NAS IS EL CENTRO NAVAL AIR STATION
N/A    - NOT AVAILABLE


USA.gov is the U.S. government's official web portal to all federal, state and local government web resources and services.